Time,TemperatureF,DewpointF,PressureIn,WindDirection,WindDirectionDegrees,WindSpeedMPH,WindSpeedGustMPH,Humidity,HourlyPrecipIn,Conditions,Clouds,dailyrainin,SoftwareType,DateUTC
2013-01-20 00:00:00,55.9,55.0,30.20,WSW,257,0.0,3.0,97,0.00,,,0.00,WUHU216DAVISVP2,2013-01-20 05:00:00,
2013-01-20 00:01:00,55.9,55.0,30.20,WSW,257,0.0,3.0,97,0.00,,,0.00,WUHU216DAVISVP2,2013-01-20 05:01:00,
2013-01-20 00:03:00,55.9,54.7,30.20,SW,217,1.0,3.0,96,0.00,,,0.00,WUHU216DAVISVP2,2013-01-20 05:03:00,
2013-01-20 00:08:00,55.9,55.0,30.20,SW,219,0.0,2.0,97,0.00,,,0.00,WUHU216DAVISVP2,2013-01-20 05:08:00,
2013-01-20 00:13:00,55.9,55.0,30.20,SW,226,0.0,3.0,97,0.00,,,0.00,WUHU216DAVISVP2,2013-01-20 05:13:00,
2013-01-20 00:18:00,55.9,55.0,30.20,SW,226,0.0,3.0,97,0.00,,,0.00,WUHU216DAVISVP2,2013-01-20 05:18:00,
2013-01-20 00:23:00,55.9,55.0,30.19,SW,228,0.0,4.0,97,0.00,,,0.00,WUHU216DAVISVP2,2013-01-20 05:23:00,
2013-01-20 00:28:00,55.9,55.0,30.19,SW,228,0.0,4.0,97,0.00,,,0.00,WUHU216DAVISVP2,2013-01-20 05:28:00,
2013-01-20 00:33:00,55.8,54.9,30.19,SW,228,0.0,3.0,97,0.00,,,0.00,WUHU216DAVISVP2,2013-01-20 05:33:00,
2013-01-20 00:38:00,55.7,54.8,30.19,SW,228,0.0,3.0,97,0.00,,,0.00,WUHU216DAVISVP2,2013-01-20 05:38:00,
2013-01-20 00:43:00,55.7,54.8,30.19,SW,228,0.0,1.0,97,0.00,,,0.00,WUHU216DAVISVP2,2013-01-20 05:43:00,
2013-01-20 00:48:00,55.5,54.6,30.19,SW,228,0.0,1.0,97,0.00,,,0.00,WUHU216DAVISVP2,2013-01-20 05:48:00,
2013-01-20 00:53:00,55.4,54.2,30.19,SW,228,0.0,1.0,96,0.00,,,0.00,WUHU216DAVISVP2,2013-01-20 05:53:00,
2013-01-20 00:58:00,55.3,54.1,30.19,SW,228,0.0,0.0,96,0.00,,,0.00,WUHU216DAVISVP2,2013-01-20 05:58:00,
2013-01-20 01:03:00,55.2,54.3,30.18,SW,228,0.0,1.0,97,0.00,,,0.00,WUHU216DAVISVP2,2013-01-20 06:03:00,
2013-01-20 01:08:00,55.1,54.2,30.19,SW,228,0.0,1.0,97,0.00,,,0.00,WUHU216DAVISVP2,2013-01-20 06:08:00,
2013-01-20 01:13:00,55.0,54.1,30.19,SW,228,0.0,2.0,97,0.00,,,0.00,WUHU216DAVISVP2,2013-01-20 06:13:00,
2013-01-20 01:18:00,54.9,54.0,30.19,SW,228,0.0,3.0,97,0.00,,,0.00,WUHU216DAVISVP2,2013-01-20 06:18:00,
2013-01-20 01:23:00,54.8,53.9,30.19,WSW,242,1.0,4.0,97,0.00,,,0.00,WUHU216DAVISVP2,2013-01-20 06:23:00,
2013-01-20 01:28:00,54.7,53.8,30.19,WSW,241,0.0,4.0,97,0.00,,,0.00,WUHU216DAVISVP2,2013-01-20 06:28:00,
2013-01-20 01:33:00,54.7,53.8,30.19,SW,235,0.0,5.0,97,0.00,,,0.00,WUHU216DAVISVP2,2013-01-20 06:33:00,
2013-01-20 01:38:00,54.7,53.8,30.19,SW,236,0.0,5.0,97,0.00,,,0.00,WUHU216DAVISVP2,2013-01-20 06:38:00,
2013-01-20 01:43:00,54.8,53.9,30.18,WSW,254,0.0,3.0,97,0.00,,,0.00,WUHU216DAVISVP2,2013-01-20 06:43:00,
2013-01-20 01:48:00,54.8,53.9,30.18,SW,228,0.0,3.0,97,0.00,,,0.00,WUHU216DAVISVP2,2013-01-20 06:48:00,
2013-01-20 01:53:00,54.9,54.0,30.18,WSW,244,0.0,3.0,97,0.00,,,0.00,WUHU216DAVISVP2,2013-01-20 06:53:00,
2013-01-20 01:58:00,54.9,54.0,30.17,WSW,244,0.0,1.0,97,0.00,,,0.00,WUHU216DAVISVP2,2013-01-20 06:58:00,
2013-01-20 02:03:00,54.9,54.0,30.18,WSW,244,0.0,2.0,97,0.00,,,0.00,WUHU216DAVISVP2,2013-01-20 07:03:00,
2013-01-20 02:08:00,54.9,54.0,30.17,SW,234,0.0,3.0,97,0.00,,,0.00,WUHU216DAVISVP2,2013-01-20 07:08:00,
2013-01-20 02:13:00,54.9,54.0,30.17,SW,235,0.0,3.0,97,0.00,,,0.00,WUHU216DAVISVP2,2013-01-20 07:13:00,
2013-01-20 02:18:00,54.9,54.0,30.17,SW,234,0.0,2.0,97,0.00,,,0.00,WUHU216DAVISVP2,2013-01-20 07:18:00,
2013-01-20 02:23:00,54.9,54.0,30.17,SW,234,0.0,3.0,97,0.00,,,0.00,WUHU216DAVISVP2,2013-01-20 07:23:00,
2013-01-20 02:28:00,55.0,54.1,30.18,SW,227,2.0,4.0,97,0.00,,,0.00,WUHU216DAVISVP2,2013-01-20 07:28:00,
2013-01-20 02:33:00,55.0,54.1,30.18,SW,227,0.0,4.0,97,0.00,,,0.00,WUHU216DAVISVP2,2013-01-20 07:33:00,
2013-01-20 02:38:00,55.0,54.1,30.18,SW,227,0.0,4.0,97,0.00,,,0.00,WUHU216DAVISVP2,2013-01-20 07:38:00,
2013-01-20 02:43:00,55.0,54.1,30.18,SW,227,0.0,2.0,97,0.00,,,0.00,WUHU216DAVISVP2,2013-01-20 07:43:00,
2013-01-20 02:48:00,55.1,54.2,30.18,SW,227,0.0,3.0,97,0.00,,,0.00,WUHU216DAVISVP2,2013-01-20 07:48:00,
2013-01-20 02:53:00,55.1,54.5,30.17,SW,232,0.0,4.0,98,0.00,,,0.00,WUHU216DAVISVP2,2013-01-20 07:53:00,
2013-01-20 02:58:00,55.2,54.6,30.18,SW,232,0.0,4.0,98,0.00,,,0.00,WUHU216DAVISVP2,2013-01-20 07:58:00,
2013-01-20 03:03:00,55.2,54.6,30.17,WSW,245,0.0,2.0,98,0.00,,,0.00,WUHU216DAVISVP2,2013-01-20 08:03:00,
2013-01-20 03:08:00,55.3,54.7,30.17,West,267,1.0,3.0,98,0.00,,,0.00,WUHU216DAVISVP2,2013-01-20 08:08:00,
2013-01-20 03:13:00,55.4,54.8,30.18,SW,236,1.0,3.0,98,0.00,,,0.00,WUHU216DAVISVP2,2013-01-20 08:13:00,
2013-01-20 03:18:00,55.5,54.6,30.18,WSW,244,2.0,5.0,97,0.00,,,0.00,WUHU216DAVISVP2,2013-01-20 08:18:00,
2013-01-20 03:23:00,55.6,54.7,30.18,WSW,239,0.0,5.0,97,0.00,,,0.00,WUHU216DAVISVP2,2013-01-20 08:23:00,
2013-01-20 03:28:00,55.7,54.8,30.18,SSW,206,0.0,5.0,97,0.00,,,0.00,WUHU216DAVISVP2,2013-01-20 08:28:00,
2013-01-20 03:33:00,55.8,54.9,30.18,WSW,241,2.0,5.0,97,0.00,,,0.00,WUHU216DAVISVP2,2013-01-20 08:33:00,
2013-01-20 03:38:00,55.9,55.0,30.18,SSW,211,0.0,4.0,97,0.00,,,0.00,WUHU216DAVISVP2,2013-01-20 08:38:00,
2013-01-20 03:43:00,55.9,55.0,30.18,WSW,240,0.0,4.0,97,0.00,,,0.00,WUHU216DAVISVP2,2013-01-20 08:43:00,
2013-01-20 03:48:00,56.0,55.1,30.18,SW,217,1.0,5.0,97,0.00,,,0.00,WUHU216DAVISVP2,2013-01-20 08:48:00,
2013-01-20 03:53:00,56.1,55.2,30.18,SW,222,0.0,5.0,97,0.00,,,0.00,WUHU216DAVISVP2,2013-01-20 08:53:00,
2013-01-20 03:58:00,56.2,55.3,30.18,WSW,245,1.0,5.0,97,0.00,,,0.00,WUHU216DAVISVP2,2013-01-20 08:58:00,
2013-01-20 04:03:00,56.3,55.1,30.18,West,262,2.0,5.0,96,0.00,,,0.00,WUHU216DAVISVP2,2013-01-20 09:03:00,
2013-01-20 04:08:00,56.4,55.2,30.18,West,269,0.0,6.0,96,0.00,,,0.00,WUHU216DAVISVP2,2013-01-20 09:08:00,
2013-01-20 04:13:00,56.5,55.3,30.18,West,275,1.0,6.0,96,0.00,,,0.00,WUHU216DAVISVP2,2013-01-20 09:13:00,
2013-01-20 04:18:00,56.6,55.4,30.18,West,259,0.0,5.0,96,0.00,,,0.00,WUHU216DAVISVP2,2013-01-20 09:18:00,
2013-01-20 04:23:00,56.7,55.2,30.18,SW,233,0.0,5.0,95,0.00,,,0.00,WUHU216DAVISVP2,2013-01-20 09:23:00,
2013-01-20 04:28:00,56.8,55.3,30.18,WSW,238,0.0,5.0,95,0.00,,,0.00,WUHU216DAVISVP2,2013-01-20 09:28:00,
2013-01-20 04:33:00,56.9,55.4,30.18,WSW,257,0.0,5.0,95,0.00,,,0.00,WUHU216DAVISVP2,2013-01-20 09:33:00,
2013-01-20 04:38:00,56.9,55.2,30.18,WNW,283,0.0,5.0,94,0.00,,,0.00,WUHU216DAVISVP2,2013-01-20 09:38:00,
2013-01-20 04:43:00,56.9,55.2,30.18,SW,235,0.0,4.0,94,0.00,,,0.00,WUHU216DAVISVP2,2013-01-20 09:43:00,
2013-01-20 04:48:00,56.9,55.2,30.18,SW,230,1.0,4.0,94,0.00,,,0.00,WUHU216DAVISVP2,2013-01-20 09:48:00,
2013-01-20 04:53:00,56.9,55.2,30.18,West,267,0.0,4.0,94,0.00,,,0.00,WUHU216DAVISVP2,2013-01-20 09:53:00,
2013-01-20 04:58:00,56.9,54.9,30.17,West,265,0.0,5.0,93,0.00,,,0.00,WUHU216DAVISVP2,2013-01-20 09:58:00,
2013-01-20 05:03:00,56.9,54.9,30.17,West,265,0.0,5.0,93,0.00,,,0.00,WUHU216DAVISVP2,2013-01-20 10:03:00,
2013-01-20 05:08:00,56.9,54.9,30.18,SW,231,0.0,4.0,93,0.00,,,0.00,WUHU216DAVISVP2,2013-01-20 10:08:00,
2013-01-20 05:13:00,56.9,54.6,30.18,West,270,3.0,6.0,92,0.00,,,0.00,WUHU216DAVISVP2,2013-01-20 10:13:00,
2013-01-20 05:18:00,56.9,54.6,30.18,SW,233,3.0,6.0,92,0.00,,,0.00,WUHU216DAVISVP2,2013-01-20 10:18:00,
2013-01-20 05:23:00,57.0,54.7,30.18,WSW,240,1.0,6.0,92,0.00,,,0.00,WUHU216DAVISVP2,2013-01-20 10:23:00,
2013-01-20 05:28:00,57.1,54.8,30.18,WSW,253,0.0,6.0,92,0.00,,,0.00,WUHU216DAVISVP2,2013-01-20 10:28:00,
2013-01-20 05:33:00,57.2,55.2,30.18,WSW,253,0.0,1.0,93,0.00,,,0.00,WUHU216DAVISVP2,2013-01-20 10:33:00,
2013-01-20 05:38:00,57.1,55.1,30.18,WSW,253,0.0,1.0,93,0.00,,,0.00,WUHU216DAVISVP2,2013-01-20 10:38:00,
2013-01-20 05:43:00,57.1,55.1,30.18,WSW,253,0.0,3.0,93,0.00,,,0.00,WUHU216DAVISVP2,2013-01-20 10:43:00,
2013-01-20 05:48:00,57.0,55.0,30.18,WSW,255,0.0,3.0,93,0.00,,,0.00,WUHU216DAVISVP2,2013-01-20 10:48:00,
2013-01-20 05:53:00,56.9,54.9,30.18,WSW,239,3.0,3.0,93,0.00,,,0.00,WUHU216DAVISVP2,2013-01-20 10:53:00,
2013-01-20 05:58:00,56.9,55.2,30.18,WSW,256,2.0,3.0,94,0.00,,,0.00,WUHU216DAVISVP2,2013-01-20 10:58:00,
2013-01-20 06:03:00,56.8,55.1,30.18,WSW,240,1.0,3.0,94,0.00,,,0.00,WUHU216DAVISVP2,2013-01-20 11:03:00,
2013-01-20 06:08:00,56.8,55.1,30.18,SW,220,0.0,4.0,94,0.00,,,0.00,WUHU216DAVISVP2,2013-01-20 11:08:00,
2013-01-20 06:13:00,56.7,54.7,30.18,SW,236,0.0,4.0,93,0.00,,,0.00,WUHU216DAVISVP2,2013-01-20 11:13:00,
2013-01-20 06:18:00,56.6,54.6,30.18,West,264,0.0,3.0,93,0.00,,,0.00,WUHU216DAVISVP2,2013-01-20 11:18:00,
2013-01-20 06:23:00,56.6,54.6,30.18,West,264,0.0,3.0,93,0.00,,,0.00,WUHU216DAVISVP2,2013-01-20 11:23:00,
2013-01-20 06:28:00,56.7,54.7,30.18,West,264,0.0,0.0,93,0.00,,,0.00,WUHU216DAVISVP2,2013-01-20 11:28:00,
2013-01-20 06:33:00,56.6,54.6,30.18,West,264,0.0,0.0,93,0.00,,,0.00,WUHU216DAVISVP2,2013-01-20 11:33:00,
2013-01-20 06:38:00,56.6,54.6,30.18,West,264,1.0,2.0,93,0.00,,,0.00,WUHU216DAVISVP2,2013-01-20 11:38:00,
2013-01-20 06:43:00,56.6,54.6,30.18,West,264,0.0,2.0,93,0.00,,,0.00,WUHU216DAVISVP2,2013-01-20 11:43:00,
2013-01-20 06:48:00,56.6,54.6,30.18,West,264,0.0,2.0,93,0.00,,,0.00,WUHU216DAVISVP2,2013-01-20 11:48:00,
2013-01-20 06:54:00,56.6,54.6,30.19,West,264,0.0,1.0,93,0.00,,,0.00,WUHU216DAVISVP2,2013-01-20 11:54:00,
2013-01-20 06:58:00,56.6,54.6,30.19,West,264,0.0,2.0,93,0.00,,,0.00,WUHU216DAVISVP2,2013-01-20 11:58:00,
2013-01-20 07:03:00,56.6,54.3,30.19,West,264,0.0,2.0,92,0.00,,,0.00,WUHU216DAVISVP2,2013-01-20 12:03:00,
2013-01-20 07:08:00,56.6,54.3,30.19,West,264,0.0,1.0,92,0.00,,,0.00,WUHU216DAVISVP2,2013-01-20 12:08:00,
2013-01-20 07:14:00,56.6,54.3,30.19,West,264,0.0,1.0,92,0.00,,,0.00,WUHU216DAVISVP2,2013-01-20 12:14:00,
2013-01-20 07:19:00,56.6,54.3,30.19,West,264,0.0,1.0,92,0.00,,,0.00,WUHU216DAVISVP2,2013-01-20 12:19:00,
2013-01-20 07:24:00,56.6,54.3,30.19,West,264,0.0,1.0,92,0.00,,,0.00,WUHU216DAVISVP2,2013-01-20 12:24:00,
2013-01-20 07:29:00,56.5,54.2,30.19,West,264,0.0,0.0,92,0.00,,,0.00,WUHU216DAVISVP2,2013-01-20 12:29:00,
2013-01-20 07:33:00,56.5,54.2,30.19,West,264,0.0,0.0,92,0.00,,,0.00,WUHU216DAVISVP2,2013-01-20 12:33:00,
2013-01-20 07:39:00,56.4,54.4,30.19,West,264,0.0,1.0,93,0.00,,,0.00,WUHU216DAVISVP2,2013-01-20 12:39:00,
2013-01-20 07:44:00,56.4,54.4,30.19,West,264,0.0,1.0,93,0.00,,,0.00,WUHU216DAVISVP2,2013-01-20 12:44:00,
2013-01-20 07:49:00,56.4,54.1,30.20,West,264,2.0,3.0,92,0.00,,,0.00,WUHU216DAVISVP2,2013-01-20 12:49:00,
2013-01-20 07:54:00,56.4,54.1,30.20,West,263,0.0,3.0,92,0.00,,,0.00,WUHU216DAVISVP2,2013-01-20 12:54:00,
2013-01-20 07:59:00,56.4,54.1,30.20,WSW,237,0.0,3.0,92,0.00,,,0.00,WUHU216DAVISVP2,2013-01-20 12:59:00,
2013-01-20 08:04:00,56.4,54.1,30.20,WSW,237,0.0,3.0,92,0.00,,,0.00,WUHU216DAVISVP2,2013-01-20 13:04:00,
2013-01-20 08:09:00,56.4,54.1,30.19,West,276,0.0,2.0,92,0.00,,,0.00,WUHU216DAVISVP2,2013-01-20 13:09:00,
2013-01-20 08:14:00,56.5,53.9,30.19,West,275,0.0,2.0,91,0.00,,,0.00,WUHU216DAVISVP2,2013-01-20 13:14:00,
2013-01-20 08:19:00,56.6,54.0,30.19,SW,226,0.0,4.0,91,0.00,,,0.00,WUHU216DAVISVP2,2013-01-20 13:19:00,
2013-01-20 08:24:00,56.7,54.1,30.19,West,269,0.0,4.0,91,0.00,,,0.00,WUHU216DAVISVP2,2013-01-20 13:24:00,
2013-01-20 08:29:00,56.9,54.0,30.19,WNW,302,0.0,3.0,90,0.00,,,0.00,WUHU216DAVISVP2,2013-01-20 13:29:00,
2013-01-20 08:34:00,57.2,54.3,30.19,SW,234,0.0,5.0,90,0.00,,,0.00,WUHU216DAVISVP2,2013-01-20 13:34:00,
2013-01-20 08:39:00,57.5,54.3,30.20,West,267,0.0,5.0,89,0.00,,,0.00,WUHU216DAVISVP2,2013-01-20 13:39:00,
2013-01-20 08:44:00,57.7,53.8,30.20,SW,229,1.0,4.0,87,0.00,,,0.00,WUHU216DAVISVP2,2013-01-20 13:44:00,
2013-01-20 08:49:00,58.1,53.9,30.20,SW,236,0.0,6.0,86,0.00,,,0.00,WUHU216DAVISVP2,2013-01-20 13:49:00,
2013-01-20 08:54:00,58.4,53.9,30.20,West,275,0.0,6.0,85,0.00,,,0.00,WUHU216DAVISVP2,2013-01-20 13:54:00,
2013-01-20 08:59:00,58.6,53.8,30.20,SW,226,0.0,5.0,84,0.00,,,0.00,WUHU216DAVISVP2,2013-01-20 13:59:00,
2013-01-20 09:04:00,58.8,54.0,30.21,SW,226,0.0,5.0,84,0.00,,,0.00,WUHU216DAVISVP2,2013-01-20 14:04:00,
2013-01-20 09:09:00,59.0,54.2,30.21,WSW,250,0.0,2.0,84,0.00,,,0.00,WUHU216DAVISVP2,2013-01-20 14:09:00,
2013-01-20 09:14:00,59.3,53.8,30.21,SW,227,4.0,4.0,82,0.00,,,0.00,WUHU216DAVISVP2,2013-01-20 14:14:00,
2013-01-20 09:19:00,59.6,54.1,30.21,WSW,244,0.0,4.0,82,0.00,,,0.00,WUHU216DAVISVP2,2013-01-20 14:19:00,
2013-01-20 09:24:00,60.0,54.2,30.21,WSW,250,0.0,4.0,81,0.00,,,0.00,WUHU216DAVISVP2,2013-01-20 14:24:00,
2013-01-20 09:29:00,60.5,54.4,30.21,West,272,2.0,5.0,80,0.00,,,0.00,WUHU216DAVISVP2,2013-01-20 14:29:00,
2013-01-20 09:34:00,60.9,54.4,30.22,SW,227,0.0,5.0,79,0.00,,,0.00,WUHU216DAVISVP2,2013-01-20 14:34:00,
2013-01-20 09:39:00,61.3,54.8,30.22,NW,323,0.0,3.0,79,0.00,,,0.00,WUHU216DAVISVP2,2013-01-20 14:39:00,
2013-01-20 09:44:00,61.7,54.9,30.22,West,272,0.0,3.0,78,0.00,,,0.00,WUHU216DAVISVP2,2013-01-20 14:44:00,
2013-01-20 09:49:00,62.0,54.4,30.22,West,263,0.0,6.0,76,0.00,,,0.00,WUHU216DAVISVP2,2013-01-20 14:49:00,
2013-01-20 09:54:00,62.3,54.4,30.22,NW,325,2.0,6.0,75,0.00,,,0.00,WUHU216DAVISVP2,2013-01-20 14:54:00,
2013-01-20 09:59:00,62.5,54.2,30.22,SW,235,0.0,4.0,74,0.00,,,0.00,WUHU216DAVISVP2,2013-01-20 14:59:00,
2013-01-20 10:04:00,62.8,54.5,30.22,West,271,0.0,4.0,74,0.00,,,0.00,WUHU216DAVISVP2,2013-01-20 15:04:00,
2013-01-20 10:09:00,63.0,54.3,30.22,West,277,0.0,4.0,73,0.00,,,0.00,WUHU216DAVISVP2,2013-01-20 15:09:00,
2013-01-20 10:14:00,63.1,53.3,30.22,WSW,256,2.0,10.0,70,0.00,,,0.00,WUHU216DAVISVP2,2013-01-20 15:14:00,
2013-01-20 10:19:00,63.1,52.9,30.22,West,266,2.0,10.0,69,0.00,,,0.00,WUHU216DAVISVP2,2013-01-20 15:19:00,
2013-01-20 10:24:00,63.0,52.8,30.22,West,281,1.0,7.0,69,0.00,,,0.00,WUHU216DAVISVP2,2013-01-20 15:24:00,
2013-01-20 10:29:00,63.1,53.3,30.21,West,261,0.0,7.0,70,0.00,,,0.00,WUHU216DAVISVP2,2013-01-20 15:29:00,
2013-01-20 10:34:00,63.3,53.1,30.21,WSW,240,0.0,9.0,69,0.00,,,0.00,WUHU216DAVISVP2,2013-01-20 15:34:00,
2013-01-20 10:39:00,63.5,53.3,30.20,SW,234,3.0,9.0,69,0.00,,,0.00,WUHU216DAVISVP2,2013-01-20 15:39:00,
2013-01-20 10:44:00,63.7,52.7,30.21,WSW,257,4.0,7.0,67,0.00,,,0.00,WUHU216DAVISVP2,2013-01-20 15:44:00,
2013-01-20 10:49:00,63.6,52.6,30.21,West,269,0.0,6.0,67,0.00,,,0.00,WUHU216DAVISVP2,2013-01-20 15:49:00,
2013-01-20 10:54:00,63.7,53.5,30.21,WSW,255,0.0,6.0,69,0.00,,,0.00,WUHU216DAVISVP2,2013-01-20 15:54:00,
2013-01-20 10:59:00,63.8,53.6,30.21,WSW,240,0.0,6.0,69,0.00,,,0.00,WUHU216DAVISVP2,2013-01-20 15:59:00,
2013-01-20 11:04:00,63.8,54.0,30.21,West,274,0.0,5.0,70,0.00,,,0.00,WUHU216DAVISVP2,2013-01-20 16:04:00,
2013-01-20 11:09:00,63.9,54.5,30.20,NW,318,0.0,3.0,71,0.00,,,0.00,WUHU216DAVISVP2,2013-01-20 16:09:00,
2013-01-20 11:14:00,63.9,54.8,30.20,WSW,255,0.0,3.0,72,0.00,,,0.00,WUHU216DAVISVP2,2013-01-20 16:14:00,
2013-01-20 11:19:00,63.9,55.2,30.20,NW,321,0.0,3.0,73,0.00,,,0.00,WUHU216DAVISVP2,2013-01-20 16:19:00,
2013-01-20 11:24:00,64.1,55.8,30.20,NW,321,0.0,1.0,74,0.00,,,0.00,WUHU216DAVISVP2,2013-01-20 16:24:00,
2013-01-20 11:29:00,64.2,55.5,30.19,South,169,0.0,5.0,73,0.00,,,0.00,WUHU216DAVISVP2,2013-01-20 16:29:00,
2013-01-20 11:34:00,64.4,56.1,30.19,SSE,154,0.0,5.0,74,0.00,,,0.00,WUHU216DAVISVP2,2013-01-20 16:34:00,
2013-01-20 11:39:00,64.7,56.3,30.19,SSE,165,0.0,1.0,74,0.00,,,0.00,WUHU216DAVISVP2,2013-01-20 16:39:00,
2013-01-20 11:44:00,64.9,56.2,30.19,NNW,327,0.0,1.0,73,0.00,,,0.00,WUHU216DAVISVP2,2013-01-20 16:44:00,
2013-01-20 11:49:00,65.2,56.1,30.19,NW,321,0.0,1.0,72,0.00,,,0.00,WUHU216DAVISVP2,2013-01-20 16:49:00,
2013-01-20 11:54:00,65.4,55.9,30.18,SSW,205,0.0,1.0,71,0.00,,,0.00,WUHU216DAVISVP2,2013-01-20 16:54:00,
2013-01-20 11:59:00,65.5,56.0,30.18,WNW,293,4.0,4.0,71,0.00,,,0.00,WUHU216DAVISVP2,2013-01-20 16:59:00,
2013-01-20 12:04:00,65.3,55.4,30.17,SW,229,0.0,4.0,70,0.00,,,0.00,WUHU216DAVISVP2,2013-01-20 17:04:00,
2013-01-20 12:09:00,65.3,55.8,30.17,West,278,0.0,3.0,71,0.00,,,0.00,WUHU216DAVISVP2,2013-01-20 17:09:00,
2013-01-20 12:14:00,65.0,55.9,30.17,WNW,288,0.0,3.0,72,0.00,,,0.00,WUHU216DAVISVP2,2013-01-20 17:14:00,
2013-01-20 12:19:00,65.0,55.5,30.16,West,265,2.0,3.0,71,0.00,,,0.00,WUHU216DAVISVP2,2013-01-20 17:19:00,
2013-01-20 12:24:00,65.2,56.1,30.16,NNW,344,1.0,4.0,72,0.00,,,0.00,WUHU216DAVISVP2,2013-01-20 17:24:00,
2013-01-20 12:29:00,65.2,54.9,30.16,West,274,0.0,4.0,69,0.00,,,0.00,WUHU216DAVISVP2,2013-01-20 17:29:00,
2013-01-20 12:34:00,65.3,54.2,30.15,West,279,0.0,4.0,67,0.00,,,0.00,WUHU216DAVISVP2,2013-01-20 17:34:00,
2013-01-20 12:39:00,65.7,55.4,30.15,NNW,339,0.0,4.0,69,0.00,,,0.00,WUHU216DAVISVP2,2013-01-20 17:39:00,
2013-01-20 12:44:00,66.3,54.8,30.14,ENE,61,1.0,1.0,66,0.00,,,0.00,WUHU216DAVISVP2,2013-01-20 17:44:00,
2013-01-20 12:49:00,66.5,55.0,30.14,ENE,61,0.0,1.0,66,0.00,,,0.00,WUHU216DAVISVP2,2013-01-20 17:49:00,
2013-01-20 12:54:00,66.7,55.2,30.13,North,349,0.0,1.0,66,0.00,,,0.00,WUHU216DAVISVP2,2013-01-20 17:54:00,
2013-01-20 12:59:00,66.7,53.4,30.13,NW,316,0.0,4.0,62,0.00,,,0.00,WUHU216DAVISVP2,2013-01-20 17:59:00,
2013-01-20 13:04:00,66.6,54.2,30.12,NE,46,0.0,4.0,64,0.00,,,0.00,WUHU216DAVISVP2,2013-01-20 18:04:00,
2013-01-20 13:09:00,66.8,54.8,30.12,WSW,254,2.0,3.0,65,0.00,,,0.00,WUHU216DAVISVP2,2013-01-20 18:09:00,
2013-01-20 13:14:00,66.8,54.0,30.12,NW,319,0.0,4.0,63,0.00,,,0.00,WUHU216DAVISVP2,2013-01-20 18:14:00,
2013-01-20 13:19:00,66.9,54.1,30.11,SSW,203,0.0,4.0,63,0.00,,,0.00,WUHU216DAVISVP2,2013-01-20 18:19:00,
2013-01-20 13:24:00,67.2,53.5,30.11,NNW,328,0.0,3.0,61,0.00,,,0.00,WUHU216DAVISVP2,2013-01-20 18:24:00,
2013-01-20 13:29:00,67.4,54.1,30.11,NE,43,0.0,3.0,62,0.00,,,0.00,WUHU216DAVISVP2,2013-01-20 18:29:00,
2013-01-20 13:34:00,67.7,55.3,30.11,NNW,338,0.0,3.0,64,0.00,,,0.00,WUHU216DAVISVP2,2013-01-20 18:34:00,
2013-01-20 13:39:00,68.3,55.8,30.11,NE,54,0.0,1.0,64,0.00,,,0.00,WUHU216DAVISVP2,2013-01-20 18:39:00,
2013-01-20 13:44:00,68.7,56.2,30.11,NE,47,0.0,1.0,64,0.00,,,0.00,WUHU216DAVISVP2,2013-01-20 18:44:00,
2013-01-20 13:49:00,68.6,55.7,30.11,NNE,24,0.0,1.0,63,0.00,,,0.00,WUHU216DAVISVP2,2013-01-20 18:49:00,
2013-01-20 13:54:00,68.5,55.1,30.10,NNE,22,1.0,1.0,62,0.00,,,0.00,WUHU216DAVISVP2,2013-01-20 18:54:00,
2013-01-20 13:59:00,68.6,54.8,30.10,NNE,13,0.0,1.0,61,0.00,,,0.00,WUHU216DAVISVP2,2013-01-20 18:59:00,
2013-01-20 14:04:00,68.8,54.1,30.10,WNW,295,1.0,2.0,59,0.00,,,0.00,WUHU216DAVISVP2,2013-01-20 19:04:00,
2013-01-20 14:09:00,68.7,54.9,30.10,NW,317,0.0,2.0,61,0.00,,,0.00,WUHU216DAVISVP2,2013-01-20 19:09:00,
2013-01-20 14:14:00,68.5,54.2,30.10,SE,139,0.0,2.0,60,0.00,,,0.00,WUHU216DAVISVP2,2013-01-20 19:14:00,
2013-01-20 14:19:00,68.1,54.3,30.10,ESE,107,0.0,2.0,61,0.00,,,0.00,WUHU216DAVISVP2,2013-01-20 19:19:00,
2013-01-20 14:24:00,68.0,54.2,30.10,NNE,26,0.0,2.0,61,0.00,,,0.00,WUHU216DAVISVP2,2013-01-20 19:24:00,
2013-01-20 14:29:00,68.0,54.2,30.09,NNW,327,0.0,1.0,61,0.00,,,0.00,WUHU216DAVISVP2,2013-01-20 19:29:00,
2013-01-20 14:34:00,68.2,53.5,30.09,NNW,340,0.0,1.0,59,0.00,,,0.00,WUHU216DAVISVP2,2013-01-20 19:34:00,
2013-01-20 14:39:00,68.0,53.8,30.09,NE,38,0.0,1.0,60,0.00,,,0.00,WUHU216DAVISVP2,2013-01-20 19:39:00,
2013-01-20 14:44:00,68.0,53.8,30.08,NE,34,0.0,1.0,60,0.00,,,0.00,WUHU216DAVISVP2,2013-01-20 19:44:00,
2013-01-20 14:49:00,68.3,53.1,30.09,WNW,300,0.0,3.0,58,0.00,,,0.00,WUHU216DAVISVP2,2013-01-20 19:49:00,
2013-01-20 14:54:00,68.3,53.6,30.08,SW,219,0.0,3.0,59,0.00,,,0.00,WUHU216DAVISVP2,2013-01-20 19:54:00,
2013-01-20 14:59:00,68.3,53.1,30.08,SW,225,0.0,2.0,58,0.00,,,0.00,WUHU216DAVISVP2,2013-01-20 19:59:00,
2013-01-20 15:04:00,68.0,52.8,30.08,NW,305,1.0,3.0,58,0.00,,,0.00,WUHU216DAVISVP2,2013-01-20 20:04:00,
2013-01-20 15:09:00,67.8,53.1,30.08,WSW,245,0.0,3.0,59,0.00,,,0.00,WUHU216DAVISVP2,2013-01-20 20:09:00,
2013-01-20 15:14:00,67.5,52.8,30.08,WSW,246,0.0,2.0,59,0.00,,,0.00,WUHU216DAVISVP2,2013-01-20 20:14:00,
2013-01-20 15:19:00,67.3,54.0,30.08,NW,315,0.0,2.0,62,0.00,,,0.00,WUHU216DAVISVP2,2013-01-20 20:19:00,
2013-01-20 15:24:00,67.1,53.4,30.08,NW,315,0.0,2.0,61,0.00,,,0.00,WUHU216DAVISVP2,2013-01-20 20:24:00,
2013-01-20 15:29:00,67.0,53.7,30.08,NW,315,0.0,2.0,62,0.00,,,0.00,WUHU216DAVISVP2,2013-01-20 20:29:00,
2013-01-20 15:34:00,67.0,53.3,30.08,NW,313,1.0,2.0,61,0.00,,,0.00,WUHU216DAVISVP2,2013-01-20 20:34:00,
2013-01-20 15:39:00,66.7,53.0,30.08,NNE,21,0.0,2.0,61,0.00,,,0.00,WUHU216DAVISVP2,2013-01-20 20:39:00,
2013-01-20 15:44:00,66.3,53.1,30.08,WSW,237,0.0,2.0,62,0.00,,,0.00,WUHU216DAVISVP2,2013-01-20 20:44:00,
2013-01-20 15:49:00,66.2,53.4,30.08,SW,232,0.0,2.0,63,0.00,,,0.00,WUHU216DAVISVP2,2013-01-20 20:49:00,
2013-01-20 15:54:00,66.0,53.6,30.08,SW,233,0.0,1.0,64,0.00,,,0.00,WUHU216DAVISVP2,2013-01-20 20:54:00,
2013-01-20 15:59:00,65.9,54.0,30.08,WSW,245,0.0,1.0,65,0.00,,,0.00,WUHU216DAVISVP2,2013-01-20 20:59:00,
2013-01-20 16:04:00,65.9,54.0,30.08,WSW,245,0.0,0.0,65,0.00,,,0.00,WUHU216DAVISVP2,2013-01-20 21:04:00,
2013-01-20 16:09:00,65.9,53.5,30.08,WSW,245,0.0,0.0,64,0.00,,,0.00,WUHU216DAVISVP2,2013-01-20 21:09:00,
2013-01-20 16:14:00,66.0,53.2,30.08,WSW,255,0.0,1.0,63,0.00,,,0.00,WUHU216DAVISVP2,2013-01-20 21:14:00,
2013-01-20 16:19:00,66.0,53.2,30.08,WSW,250,0.0,1.0,63,0.00,,,0.00,WUHU216DAVISVP2,2013-01-20 21:19:00,
2013-01-20 16:24:00,66.0,54.1,30.08,SW,236,0.0,1.0,65,0.00,,,0.00,WUHU216DAVISVP2,2013-01-20 21:24:00,
2013-01-20 16:29:00,66.1,54.2,30.08,SW,236,0.0,1.0,65,0.00,,,0.00,WUHU216DAVISVP2,2013-01-20 21:29:00,
2013-01-20 16:34:00,65.9,54.0,30.08,SW,236,0.0,0.0,65,0.00,,,0.00,WUHU216DAVISVP2,2013-01-20 21:34:00,
2013-01-20 16:39:00,65.8,54.3,30.08,SW,236,0.0,1.0,66,0.00,,,0.00,WUHU216DAVISVP2,2013-01-20 21:39:00,
2013-01-20 16:44:00,65.8,54.3,30.08,SW,236,0.0,1.0,66,0.00,,,0.00,WUHU216DAVISVP2,2013-01-20 21:44:00,
2013-01-20 16:49:00,65.7,54.6,30.08,WSW,248,0.0,1.0,67,0.00,,,0.00,WUHU216DAVISVP2,2013-01-20 21:49:00,
2013-01-20 16:54:00,65.5,54.4,30.09,WSW,248,0.0,1.0,67,0.00,,,0.00,WUHU216DAVISVP2,2013-01-20 21:54:00,
2013-01-20 16:59:00,65.4,54.7,30.09,WSW,248,0.0,0.0,68,0.00,,,0.00,WUHU216DAVISVP2,2013-01-20 21:59:00,
2013-01-20 17:04:00,65.3,54.6,30.08,WSW,244,0.0,1.0,68,0.00,,,0.00,WUHU216DAVISVP2,2013-01-20 22:04:00,
2013-01-20 17:09:00,65.2,54.5,30.09,WSW,243,0.0,1.0,68,0.00,,,0.00,WUHU216DAVISVP2,2013-01-20 22:09:00,
2013-01-20 17:14:00,65.0,54.7,30.09,WSW,242,0.0,0.0,69,0.00,,,0.00,WUHU216DAVISVP2,2013-01-20 22:14:00,
2013-01-20 17:20:00,64.9,55.0,30.09,WSW,243,0.0,0.0,70,0.00,,,0.00,WUHU216DAVISVP2,2013-01-20 22:20:00,
2013-01-20 17:25:00,64.7,55.2,30.09,WSW,243,0.0,0.0,71,0.00,,,0.00,WUHU216DAVISVP2,2013-01-20 22:25:00,
2013-01-20 17:29:00,64.4,55.3,30.09,WSW,243,0.0,0.0,72,0.00,,,0.00,WUHU216DAVISVP2,2013-01-20 22:29:00,
2013-01-20 17:34:00,64.2,55.5,30.09,WSW,243,0.0,0.0,73,0.00,,,0.00,WUHU216DAVISVP2,2013-01-20 22:34:00,
2013-01-20 17:40:00,63.9,55.2,30.09,WSW,243,0.0,0.0,73,0.00,,,0.00,WUHU216DAVISVP2,2013-01-20 22:40:00,
2013-01-20 17:44:00,63.7,55.0,30.10,WSW,243,0.0,0.0,73,0.00,,,0.00,WUHU216DAVISVP2,2013-01-20 22:44:00,
2013-01-20 17:49:00,63.4,55.1,30.09,WSW,243,0.0,0.0,74,0.00,,,0.00,WUHU216DAVISVP2,2013-01-20 22:49:00,
2013-01-20 17:55:00,63.1,55.2,30.10,WSW,243,0.0,0.0,75,0.00,,,0.00,WUHU216DAVISVP2,2013-01-20 22:55:00,
2013-01-20 18:00:00,62.8,55.2,30.09,WSW,243,0.0,0.0,76,0.00,,,0.00,WUHU216DAVISVP2,2013-01-20 23:00:00,
2013-01-20 18:05:00,62.5,54.9,30.09,WSW,243,0.0,0.0,76,0.00,,,0.00,WUHU216DAVISVP2,2013-01-20 23:05:00,
2013-01-20 18:10:00,62.2,55.0,30.09,WSW,243,0.0,0.0,77,0.00,,,0.00,WUHU216DAVISVP2,2013-01-20 23:10:00,
2013-01-20 18:15:00,61.9,55.0,30.10,WSW,243,0.0,0.0,78,0.00,,,0.00,WUHU216DAVISVP2,2013-01-20 23:15:00,
2013-01-20 18:20:00,61.6,55.1,30.09,WSW,243,0.0,0.0,79,0.00,,,0.00,WUHU216DAVISVP2,2013-01-20 23:20:00,
2013-01-20 18:25:00,61.3,54.8,30.09,WSW,243,0.0,0.0,79,0.00,,,0.00,WUHU216DAVISVP2,2013-01-20 23:25:00,
2013-01-20 18:30:00,61.0,54.8,30.10,WSW,243,0.0,0.0,80,0.00,,,0.00,WUHU216DAVISVP2,2013-01-20 23:30:00,
2013-01-20 18:35:00,60.7,54.9,30.09,WSW,243,0.0,0.0,81,0.00,,,0.00,WUHU216DAVISVP2,2013-01-20 23:35:00,
2013-01-20 18:40:00,60.5,54.7,30.10,WSW,243,0.0,0.0,81,0.00,,,0.00,WUHU216DAVISVP2,2013-01-20 23:40:00,
2013-01-20 18:45:00,60.2,54.7,30.10,WSW,243,0.0,0.0,82,0.00,,,0.00,WUHU216DAVISVP2,2013-01-20 23:45:00,
2013-01-20 18:50:00,60.0,54.8,30.10,WSW,243,0.0,0.0,83,0.00,,,0.00,WUHU216DAVISVP2,2013-01-20 23:50:00,
2013-01-20 18:55:00,59.8,55.0,30.10,WSW,243,0.0,0.0,84,0.00,,,0.00,WUHU216DAVISVP2,2013-01-20 23:55:00,
2013-01-20 19:00:00,59.6,54.8,30.10,WSW,243,0.0,0.0,84,0.00,,,0.00,WUHU216DAVISVP2,2013-01-21 00:00:00,
2013-01-20 19:05:00,59.3,54.5,30.10,WSW,243,0.0,0.0,84,0.00,,,0.00,WUHU216DAVISVP2,2013-01-21 00:05:00,
2013-01-20 19:10:00,59.0,54.2,30.10,WSW,243,0.0,0.0,84,0.00,,,0.00,WUHU216DAVISVP2,2013-01-21 00:10:00,
2013-01-20 19:15:00,58.8,54.0,30.10,WSW,243,0.0,0.0,84,0.00,,,0.00,WUHU216DAVISVP2,2013-01-21 00:15:00,
2013-01-20 19:20:00,58.5,54.0,30.10,WSW,243,0.0,0.0,85,0.00,,,0.00,WUHU216DAVISVP2,2013-01-21 00:20:00,
2013-01-20 19:25:00,58.3,53.8,30.10,WSW,243,0.0,0.0,85,0.00,,,0.00,WUHU216DAVISVP2,2013-01-21 00:25:00,
2013-01-20 19:30:00,57.9,53.7,30.10,WSW,243,0.0,0.0,86,0.00,,,0.00,WUHU216DAVISVP2,2013-01-21 00:30:00,
2013-01-20 19:35:00,57.6,53.4,30.10,WSW,243,0.0,0.0,86,0.00,,,0.00,WUHU216DAVISVP2,2013-01-21 00:35:00,
2013-01-20 19:40:00,57.5,53.6,30.10,WSW,243,0.0,0.0,87,0.00,,,0.00,WUHU216DAVISVP2,2013-01-21 00:40:00,
2013-01-20 19:45:00,57.3,53.1,30.10,WSW,243,0.0,0.0,86,0.00,,,0.00,WUHU216DAVISVP2,2013-01-21 00:45:00,
2013-01-20 19:50:00,57.1,53.3,30.10,WSW,243,0.0,0.0,87,0.00,,,0.00,WUHU216DAVISVP2,2013-01-21 00:50:00,
2013-01-20 19:55:00,56.9,53.1,30.10,WSW,243,0.0,0.0,87,0.00,,,0.00,WUHU216DAVISVP2,2013-01-21 00:55:00,
2013-01-20 20:00:00,56.8,53.3,30.11,WSW,243,0.0,0.0,88,0.00,,,0.00,WUHU216DAVISVP2,2013-01-21 01:00:00,
2013-01-20 20:05:00,56.6,53.1,30.10,WSW,243,0.0,0.0,88,0.00,,,0.00,WUHU216DAVISVP2,2013-01-21 01:05:00,
2013-01-20 20:10:00,56.4,52.9,30.11,WSW,243,0.0,0.0,88,0.00,,,0.00,WUHU216DAVISVP2,2013-01-21 01:10:00,
2013-01-20 20:15:00,56.2,52.7,30.11,WSW,243,0.0,0.0,88,0.00,,,0.00,WUHU216DAVISVP2,2013-01-21 01:15:00,
2013-01-20 20:20:00,56.0,52.5,30.11,WSW,243,0.0,0.0,88,0.00,,,0.00,WUHU216DAVISVP2,2013-01-21 01:20:00,
2013-01-20 20:25:00,55.9,52.7,30.11,WSW,243,0.0,0.0,89,0.00,,,0.00,WUHU216DAVISVP2,2013-01-21 01:25:00,
2013-01-20 20:30:00,55.8,52.6,30.11,WSW,243,0.0,1.0,89,0.00,,,0.00,WUHU216DAVISVP2,2013-01-21 01:30:00,
2013-01-20 20:35:00,55.6,52.4,30.11,WSW,243,0.0,1.0,89,0.00,,,0.00,WUHU216DAVISVP2,2013-01-21 01:35:00,
2013-01-20 20:40:00,55.5,52.6,30.11,WSW,243,0.0,0.0,90,0.00,,,0.00,WUHU216DAVISVP2,2013-01-21 01:40:00,
2013-01-20 20:45:00,55.5,52.6,30.11,WSW,243,0.0,0.0,90,0.00,,,0.00,WUHU216DAVISVP2,2013-01-21 01:45:00,
2013-01-20 20:50:00,55.3,52.4,30.11,WSW,242,0.0,0.0,90,0.00,,,0.00,WUHU216DAVISVP2,2013-01-21 01:50:00,
2013-01-20 20:55:00,55.2,52.3,30.11,WSW,242,0.0,0.0,90,0.00,,,0.00,WUHU216DAVISVP2,2013-01-21 01:55:00,
2013-01-20 21:00:00,55.0,52.1,30.11,WSW,242,0.0,0.0,90,0.00,,,0.00,WUHU216DAVISVP2,2013-01-21 02:00:00,
2013-01-20 21:05:00,54.8,51.9,30.11,WSW,242,0.0,0.0,90,0.00,,,0.00,WUHU216DAVISVP2,2013-01-21 02:05:00,
2013-01-20 21:10:00,54.6,51.7,30.11,WSW,242,0.0,0.0,90,0.00,,,0.00,WUHU216DAVISVP2,2013-01-21 02:10:00,
2013-01-20 21:15:00,54.4,51.8,30.12,WSW,242,0.0,0.0,91,0.00,,,0.00,WUHU216DAVISVP2,2013-01-21 02:15:00,
2013-01-20 21:20:00,54.3,51.7,30.12,WSW,242,0.0,0.0,91,0.00,,,0.00,WUHU216DAVISVP2,2013-01-21 02:20:00,
2013-01-20 21:25:00,54.2,51.6,30.11,WSW,242,0.0,0.0,91,0.00,,,0.00,WUHU216DAVISVP2,2013-01-21 02:25:00,
2013-01-20 21:30:00,54.1,51.5,30.12,WSW,242,0.0,0.0,91,0.00,,,0.00,WUHU216DAVISVP2,2013-01-21 02:30:00,
2013-01-20 21:35:00,54.0,51.4,30.11,WSW,242,0.0,0.0,91,0.00,,,0.00,WUHU216DAVISVP2,2013-01-21 02:35:00,
2013-01-20 21:40:00,53.9,51.3,30.12,WSW,242,0.0,0.0,91,0.00,,,0.00,WUHU216DAVISVP2,2013-01-21 02:40:00,
2013-01-20 21:45:00,53.8,51.5,30.12,WSW,242,0.0,0.0,92,0.00,,,0.00,WUHU216DAVISVP2,2013-01-21 02:45:00,
2013-01-20 21:50:00,53.6,51.3,30.12,WSW,242,0.0,0.0,92,0.00,,,0.00,WUHU216DAVISVP2,2013-01-21 02:50:00,
2013-01-20 21:55:00,53.5,51.2,30.12,WSW,242,0.0,0.0,92,0.00,,,0.00,WUHU216DAVISVP2,2013-01-21 02:55:00,
2013-01-20 22:00:00,53.5,51.2,30.12,WSW,242,0.0,0.0,92,0.00,,,0.00,WUHU216DAVISVP2,2013-01-21 03:00:00,
2013-01-20 22:05:00,53.4,51.1,30.12,WSW,241,0.0,0.0,92,0.00,,,0.00,WUHU216DAVISVP2,2013-01-21 03:05:00,
2013-01-20 22:10:00,53.4,51.4,30.12,WSW,241,0.0,0.0,93,0.00,,,0.00,WUHU216DAVISVP2,2013-01-21 03:10:00,
2013-01-20 22:15:00,53.4,51.4,30.12,WSW,241,0.0,0.0,93,0.00,,,0.00,WUHU216DAVISVP2,2013-01-21 03:15:00,
2013-01-20 22:20:00,53.2,51.2,30.12,WSW,243,0.0,0.0,93,0.00,,,0.00,WUHU216DAVISVP2,2013-01-21 03:20:00,
2013-01-20 22:25:00,53.1,51.1,30.12,WSW,243,0.0,0.0,93,0.00,,,0.00,WUHU216DAVISVP2,2013-01-21 03:25:00,
2013-01-20 22:30:00,52.9,50.9,30.12,WSW,242,0.0,0.0,93,0.00,,,0.00,WUHU216DAVISVP2,2013-01-21 03:30:00,
2013-01-20 22:35:00,52.8,50.8,30.12,WSW,242,0.0,0.0,93,0.00,,,0.00,WUHU216DAVISVP2,2013-01-21 03:35:00,
2013-01-20 22:40:00,52.7,50.7,30.12,WSW,242,0.0,0.0,93,0.00,,,0.00,WUHU216DAVISVP2,2013-01-21 03:40:00,
2013-01-20 22:45:00,52.5,50.5,30.12,WSW,242,0.0,0.0,93,0.00,,,0.00,WUHU216DAVISVP2,2013-01-21 03:45:00,
2013-01-20 22:50:00,52.4,50.7,30.12,WSW,242,0.0,0.0,94,0.00,,,0.00,WUHU216DAVISVP2,2013-01-21 03:50:00,
2013-01-20 22:55:00,52.3,50.6,30.12,WSW,242,0.0,0.0,94,0.00,,,0.00,WUHU216DAVISVP2,2013-01-21 03:55:00,
2013-01-20 23:00:00,52.2,50.5,30.12,WSW,243,0.0,0.0,94,0.00,,,0.00,WUHU216DAVISVP2,2013-01-21 04:00:00,
2013-01-20 23:05:00,52.1,50.4,30.12,WSW,243,0.0,0.0,94,0.00,,,0.00,WUHU216DAVISVP2,2013-01-21 04:05:00,
2013-01-20 23:10:00,52.1,50.4,30.11,WSW,243,0.0,0.0,94,0.00,,,0.00,WUHU216DAVISVP2,2013-01-21 04:10:00,
2013-01-20 23:15:00,52.0,50.3,30.12,WSW,244,0.0,0.0,94,0.00,,,0.00,WUHU216DAVISVP2,2013-01-21 04:15:00,
2013-01-20 23:20:00,51.9,50.2,30.12,WSW,244,0.0,0.0,94,0.00,,,0.00,WUHU216DAVISVP2,2013-01-21 04:20:00,
2013-01-20 23:25:00,51.9,50.2,30.12,WSW,244,0.0,0.0,94,0.00,,,0.00,WUHU216DAVISVP2,2013-01-21 04:25:00,
2013-01-20 23:30:00,51.9,50.2,30.12,WSW,244,0.0,0.0,94,0.00,,,0.00,WUHU216DAVISVP2,2013-01-21 04:30:00,
2013-01-20 23:35:00,52.1,50.7,30.12,WSW,244,0.0,0.0,95,0.00,,,0.00,WUHU216DAVISVP2,2013-01-21 04:35:00,
2013-01-20 23:40:00,52.0,50.3,30.12,WSW,244,0.0,0.0,94,0.00,,,0.00,WUHU216DAVISVP2,2013-01-21 04:40:00,
2013-01-20 23:45:00,52.0,50.3,30.11,WSW,244,0.0,0.0,94,0.00,,,0.00,WUHU216DAVISVP2,2013-01-21 04:45:00,
2013-01-20 23:50:00,51.9,50.2,30.11,WSW,244,0.0,0.0,94,0.00,,,0.00,WUHU216DAVISVP2,2013-01-21 04:50:00,
2013-01-20 23:55:00,51.9,50.2,30.11,WSW,244,0.0,0.0,94,0.00,,,0.00,WUHU216DAVISVP2,2013-01-21 04:55:00,